IRIDIUM 165

Last updated on Tue Sep 22 2026 00:03:21 GMT+0000 (Coordinated Universal Time)

1 43572U 18061D 26264.56924170 -.00000005 00000+0 -88996-5 0 9992 2 43572 86.4012 16.4997 0001945 93.7595 266.3824 14.34217403427202
UTC large
Height (km)
Speed (km/s)
/
Latitude / Longitude
Inclination (degrees)
Orbital Period (minutes)
Azimuth
Elevation
Range (km)
Doppler Factor

Next 0 passes for location: London (51.5072 / 0.1276)

No passes found over London.
IRIDIUM 165